• In Netherlands
  • List of Countries
  • For 7 days
  • Water Temperature
  • Satellite Maps
  • Weather Map
  • Weather Widgets
  • user-avatar
    Login

    Hourly Weather Hobart

    Today, 29 March, Wednesday

    Time Temperature Precipitation Wind Pressure Humidity
    00:00 +14°C° 0 mm 5 mps 740 mmHg 77%
    01:00 +14°C° 0 mm 5 mps 740 mmHg 76%
    02:00 +14°C° 0 mm 5 mps 740 mmHg 76%
    03:00 +15°C° 0 mm 5 mps 739 mmHg 75%
    04:00 +14°C° 0 mm 4 mps 739 mmHg 76%
    05:00 +14°C° 0 mm 5 mps 739 mmHg 77%
    06:00 +14°C° 0 mm 5 mps 739 mmHg 78%
    07:00 +14°C° 0 mm 5 mps 738 mmHg 79%
    08:00 +15°C° 0 mm 6 mps 738 mmHg 73%
    09:00 +17°C° 0 mm 6 mps 738 mmHg 68%
    10:00 +18°C° 0 mm 7 mps 737 mmHg 60%
    11:00 +20°C° 0 mm 7 mps 737 mmHg 59%
    12:00 +20°C° 0 mm 7 mps 736 mmHg 58%
    13:00 +20°C° 0 mm 7 mps 736 mmHg 57%
    14:00 +19°C° 0.3 mm 6 mps 736 mmHg 64%
    15:00 +17°C° 0.3 mm 6 mps 736 mmHg 71%
    16:00 +15°C° 0 mm 4 mps 736 mmHg 78%
    17:00 +13°C° 1.4 mm 5 mps 737 mmHg 82%
    18:00 +12°C° 1.4 mm 5 mps 738 mmHg 86%
    19:00 +9°C° 1.4 mm 5 mps 738 mmHg 90%
    20:00 +9°C° 0.3 mm 5 mps 739 mmHg 90%
    21:00 +10°C° 0.3 mm 4 mps 739 mmHg 90%
    22:00 +8°C° 0.3 mm 4 mps 740 mmHg 90%
    23:00 +8°C° 0 mm 4 mps 740 mmHg 90%

    Tomorrow, 30 March, Thursday

    Time Temperature Precipitation Wind Pressure Humidity
    00:00 +7°C° 0 mm 5 mps 740 mmHg 90%
    01:00 +7°C° 0 mm 5 mps 741 mmHg 90%
    02:00 +7°C° 0 mm 5 mps 741 mmHg 91%
    03:00 +6°C° 0 mm 5 mps 741 mmHg 91%
    04:00 +6°C° 0 mm 5 mps 742 mmHg 91%
    05:00 +6°C° 0 mm 5 mps 742 mmHg 92%
    06:00 +6°C° 0 mm 5 mps 743 mmHg 92%
    07:00 +6°C° 0 mm 5 mps 744 mmHg 92%
    08:00 +8°C° 0 mm 5 mps 744 mmHg 82%
    09:00 +10°C° 0 mm 5 mps 745 mmHg 72%
    10:00 +12°C° 0 mm 5 mps 746 mmHg 62%
    11:00 +13°C° 0.1 mm 5 mps 746 mmHg 57%
    12:00 +14°C° 0.1 mm 5 mps 746 mmHg 53%
    13:00 +15°C° 0.1 mm 6 mps 747 mmHg 48%
    14:00 +14°C° 0.1 mm 6 mps 747 mmHg 50%
    15:00 +14°C° 0.1 mm 5 mps 747 mmHg 52%
    16:00 +13°C° 0.1 mm 5 mps 747 mmHg 53%
    17:00 +12°C° 0 mm 5 mps 748 mmHg 61%
    18:00 +10°C° 0 mm 4 mps 749 mmHg 69%
    19:00 +7°C° 0 mm 4 mps 750 mmHg 77%
    20:00 +7°C° 0 mm 4 mps 750 mmHg 80%
    21:00 +7°C° 0 mm 3 mps 751 mmHg 83%
    22:00 +7°C° 0 mm 3 mps 751 mmHg 86%
    23:00 +5°C° 0 mm 3 mps 751 mmHg 88%

    Day after tomorrow, 31 March, Friday

    Time Temperature Precipitation Wind Pressure Humidity
    00:00 +5°C° 0 mm 3 mps 751 mmHg 90%
    01:00 +4°C° 0 mm 3 mps 751 mmHg 92%
    02:00 +4°C° 0 mm 3 mps 751 mmHg 92%
    03:00 +5°C° 0 mm 2 mps 750 mmHg 93%
    04:00 +4°C° 0 mm 2 mps 750 mmHg 93%
    05:00 +5°C° 0 mm 2 mps 750 mmHg 92%
    06:00 +5°C° 0 mm 2 mps 751 mmHg 91%
    07:00 +5°C° 0 mm 2 mps 751 mmHg 90%
    08:00 +7°C° 0 mm 2 mps 751 mmHg 78%
    09:00 +10°C° 0 mm 2 mps 751 mmHg 67%
    10:00 +14°C° 0 mm 2 mps 751 mmHg 55%
    11:00 +14°C° 0 mm 3 mps 750 mmHg 51%
    12:00 +16°C° 0 mm 3 mps 750 mmHg 48%
    13:00 +17°C° 0 mm 3 mps 749 mmHg 44%
    14:00 +17°C° 0 mm 3 mps 749 mmHg 46%
    15:00 +17°C° 0 mm 3 mps 748 mmHg 49%
    16:00 +17°C° 0 mm 3 mps 747 mmHg 51%
    17:00 +14°C° 0 mm 3 mps 747 mmHg 60%
    18:00 +12°C° 0 mm 3 mps 747 mmHg 69%
    19:00 +10°C° 0 mm 3 mps 747 mmHg 77%
    20:00 +10°C° 0 mm 3 mps 747 mmHg 80%
    21:00 +10°C° 0 mm 4 mps 746 mmHg 82%
    22:00 +8°C° 0 mm 5 mps 746 mmHg 85%
    23:00 +9°C° 0 mm 5 mps 745 mmHg 84%

    1 April, Saturday

    Time Temperature Precipitation Wind Pressure Humidity
    00:00 +9°C° 0 mm 5 mps 745 mmHg 84%
    01:00 +9°C° 0 mm 6 mps 744 mmHg 84%
    02:00 +9°C° 0.5 mm 6 mps 744 mmHg 87%
    03:00 +10°C° 0.5 mm 5 mps 744 mmHg 90%
    04:00 +10°C° 0.5 mm 5 mps 744 mmHg 92%
    05:00 +9°C° 0.2 mm 5 mps 744 mmHg 93%
    06:00 +8°C° 0.2 mm 5 mps 745 mmHg 93%
    07:00 +7°C° 0.2 mm 5 mps 745 mmHg 93%
    08:00 +8°C° 0.1 mm 6 mps 745 mmHg 84%
    09:00 +9°C° 0.1 mm 7 mps 746 mmHg 76%
    10:00 +10°C° 0.1 mm 8 mps 746 mmHg 67%
    11:00 +10°C° 0.2 mm 9 mps 747 mmHg 65%
    12:00 +10°C° 0.2 mm 9 mps 747 mmHg 62%
    13:00 +11°C° 0.2 mm 10 mps 747 mmHg 60%
    14:00 +9°C° 0.1 mm 10 mps 748 mmHg 60%
    15:00 +9°C° 0.1 mm 10 mps 748 mmHg 60%
    16:00 +9°C° 0.1 mm 10 mps 749 mmHg 61%
    17:00 +8°C° 0.1 mm 9 mps 749 mmHg 66%
    18:00 +7°C° 0.1 mm 8 mps 750 mmHg 71%
    19:00 +6°C° 0.1 mm 7 mps 751 mmHg 76%
    20:00 +5°C° 0 mm 7 mps 752 mmHg 78%
    21:00 +5°C° 0 mm 6 mps 753 mmHg 80%
    22:00 +5°C° 0 mm 6 mps 753 mmHg 82%
    23:00 +7°C° 0 mm 6 mps 754 mmHg 80%

    2 April, Sunday

    Time Temperature Precipitation Wind Pressure Humidity
    00:00 +7°C° 0 mm 5 mps 754 mmHg 79%
    01:00 +7°C° 0 mm 5 mps 754 mmHg 77%
    02:00 +7°C° 0 mm 5 mps 755 mmHg 79%
    03:00 +7°C° 0 mm 5 mps 755 mmHg 81%
    04:00 +6°C° 0 mm 5 mps 755 mmHg 83%
    05:00 +6°C° 0 mm 5 mps 756 mmHg 85%
    06:00 +5°C° 0 mm 4 mps 757 mmHg 88%
    07:00 +5°C° 0 mm 4 mps 757 mmHg 90%
    08:00 +7°C° 0 mm 4 mps 758 mmHg 79%
    09:00 +10°C° 0 mm 4 mps 759 mmHg 69%
    10:00 +12°C° 0 mm 5 mps 759 mmHg 58%
    11:00 +12°C° 0 mm 4 mps 759 mmHg 57%
    12:00 +13°C° 0 mm 4 mps 759 mmHg 55%
    13:00 +13°C° 0 mm 4 mps 759 mmHg 54%
    14:00 +13°C° 0 mm 3 mps 760 mmHg 55%
    15:00 +13°C° 0 mm 3 mps 760 mmHg 55%
    16:00 +13°C° 0 mm 3 mps 760 mmHg 56%
    17:00 +11°C° 0 mm 3 mps 760 mmHg 64%
    18:00 +9°C° 0 mm 2 mps 761 mmHg 72%
    19:00 +7°C° 0 mm 2 mps 761 mmHg 80%
    20:00 +7°C° 0 mm 2 mps 762 mmHg 83%
    21:00 +6°C° 0 mm 2 mps 762 mmHg 86%
    22:00 +6°C° 0 mm 2 mps 762 mmHg 89%
    23:00 +6°C° 0 mm 1 mps 762 mmHg 90%

    3 April, Monday

    Time Temperature Precipitation Wind Pressure Humidity
    00:00 +5°C° 0 mm 1 mps 762 mmHg 92%
    01:00 +4°C° 0 mm 1 mps 762 mmHg 93%
    02:00 +4°C° 0 mm 1 mps 762 mmHg 93%
    03:00 +4°C° 0 mm 1 mps 762 mmHg 93%
    04:00 +4°C° 0 mm 1 mps 762 mmHg 93%
    05:00 +4°C° 0 mm 1 mps 762 mmHg 93%
    06:00 +5°C° 0 mm 1 mps 763 mmHg 92%
    07:00 +5°C° 0 mm 1 mps 763 mmHg 92%
    08:00 +8°C° 0 mm 1 mps 763 mmHg 78%
    09:00 +12°C° 0 mm 1 mps 763 mmHg 64%
    10:00 +15°C° 0 mm 1 mps 763 mmHg 51%
    11:00 +18°C° 0 mm 1 mps 763 mmHg 47%
    12:00 +18°C° 0 mm 2 mps 762 mmHg 43%
    13:00 +19°C° 0 mm 2 mps 762 mmHg 39%
    14:00 +19°C° 0 mm 2 mps 761 mmHg 41%
    15:00 +18°C° 0 mm 3 mps 761 mmHg 43%
    16:00 +18°C° 0 mm 3 mps 761 mmHg 45%
    17:00 +16°C° 0 mm 3 mps 761 mmHg 58%
    18:00 +12°C° 0 mm 3 mps 761 mmHg 71%
    19:00 +10°C° 0 mm 3 mps 761 mmHg 84%
    20:00 +9°C° 0 mm 3 mps 761 mmHg 87%
    21:00 +8°C° 0 mm 3 mps 761 mmHg 91%
    22:00 +7°C° 0 mm 3 mps 761 mmHg 94%
    23:00 +7°C° 0 mm 3 mps 761 mmHg 94%
    Show more